CPA232 KBOS-KJFK

Flight info

Callsign CPA232
Flight time N/A
Altitude 28000
Route SSOXS7 SSOXS BUZRD SEY PARCH4
Aircraft A35K/H-SDE2E3GHIJ3J4J5LM1ORWXY/LB1D1

Departure

Time 2026-04-29 09:17
Airport Boston Logan International Airport (KBOS)

Arrival

Time N/A
Airport John F. Kennedy International Airport (KJFK)
Time Latitude Longitude Altitude Speed Heading
2026-04-29 09:02 42.36281 -71.01551 28 ft 0 kts 334°
2026-04-29 09:09 42.36278 -71.01549 28 ft 3 kts 335°
2026-04-29 09:09 42.36253 -71.01535 27 ft 4 kts 339°
2026-04-29 09:09 42.36228 -71.01523 27 ft 4 kts 344°
2026-04-29 09:09 42.36202 -71.01514 29 ft 4 kts 353°
2026-04-29 09:10 42.36176 -71.01512 30 ft 4 kts
2026-04-29 09:10 42.36156 -71.01517 29 ft 0 kts 19°
2026-04-29 09:12 42.36158 -71.01516 28 ft 2 kts 19°
2026-04-29 09:13 42.36203 -71.01495 27 ft 12 kts 19°
2026-04-29 09:13 42.36311 -71.01443 27 ft 16 kts 19°
2026-04-29 09:13 42.36427 -71.01386 29 ft 24 kts 20°
2026-04-29 09:13 42.36593 -71.01289 30 ft 26 kts 23°
2026-04-29 09:14 42.36705 -71.01248 31 ft 3 kts 12°
2026-04-29 09:14 42.36755 -71.01249 30 ft 14 kts 341°
2026-04-29 09:14 42.36863 -71.01360 31 ft 21 kts 312°
2026-04-29 09:14 42.36965 -71.01506 32 ft 22 kts 314°
2026-04-29 09:15 42.37074 -71.01654 36 ft 22 kts 316°
2026-04-29 09:15 42.37162 -71.01653 35 ft 10 kts 39°
2026-04-29 09:15 42.37217 -71.01583 36 ft 12 kts 46°
2026-04-29 09:15 42.37223 -71.01524 36 ft 5 kts 114°
2026-04-29 09:16 42.37199 -71.01482 36 ft 0 kts 131°
2026-04-29 09:16 42.37149 -71.01413 34 ft 30 kts 134°
2026-04-29 09:16 42.36804 -71.00952 33 ft 106 kts 135°
2026-04-29 09:17 42.36119 -71.00050 48 ft 165 kts 132°
2026-04-29 09:17 42.35302 -70.98984 869 ft 156 kts 133°
2026-04-29 09:17 42.34538 -70.97948 1732 ft 155 kts 124°
2026-04-29 09:17 42.34067 -70.96576 2317 ft 170 kts 106°
2026-04-29 09:18 42.33732 -70.94928 2574 ft 195 kts 102°
2026-04-29 09:18 42.33385 -70.93046 2808 ft 219 kts 102°
2026-04-29 09:18 42.32990 -70.90979 3195 ft 235 kts 102°
2026-04-29 09:18 42.32553 -70.88750 3585 ft 255 kts 103°
2026-04-29 09:19 42.32302 -70.86354 4208 ft 261 kts 85°
2026-04-29 09:19 42.32600 -70.83939 4962 ft 263 kts 76°
2026-04-29 09:19 42.32987 -70.81501 5684 ft 268 kts 80°
2026-04-29 09:19 42.32890 -70.78976 6442 ft 273 kts 102°
2026-04-29 09:20 42.32294 -70.76541 7150 ft 277 kts 112°
2026-04-29 09:20 42.31211 -70.74367 7778 ft 284 kts 135°
2026-04-29 09:20 42.29625 -70.72740 8459 ft 289 kts 143°
2026-04-29 09:20 42.28018 -70.71081 9154 ft 293 kts 142°
2026-04-29 09:21 42.26344 -70.69487 9850 ft 297 kts 146°
2026-04-29 09:21 42.24548 -70.68035 10340 ft 308 kts 152°
2026-04-29 09:21 42.22548 -70.66775 10592 ft 326 kts 157°
2026-04-29 09:21 42.20488 -70.65396 10823 ft 344 kts 151°
2026-04-29 09:22 42.18381 -70.63731 11063 ft 359 kts 150°
2026-04-29 09:22 42.16117 -70.62192 11370 ft 370 kts 162°
2026-04-29 09:22 42.13574 -70.61712 11887 ft 371 kts 182°
2026-04-29 09:22 42.11040 -70.62300 12485 ft 370 kts 198°
2026-04-29 09:23 42.08597 -70.63407 13094 ft 371 kts 201°
2026-04-29 09:23 42.06153 -70.64581 13674 ft 374 kts 201°
2026-04-29 09:23 42.03690 -70.65740 14183 ft 377 kts 201°
2026-04-29 09:23 42.01197 -70.66882 14630 ft 381 kts 200°
2026-04-29 09:24 41.98666 -70.68019 15080 ft 385 kts 200°
2026-04-29 09:24 41.96111 -70.69155 15547 ft 389 kts 200°
2026-04-29 09:24 41.93524 -70.70297 16018 ft 393 kts 200°
2026-04-29 09:24 41.90917 -70.71444 16499 ft 397 kts 200°
2026-04-29 09:25 41.88283 -70.72601 16957 ft 400 kts 200°
2026-04-29 09:25 41.85623 -70.73769 17423 ft 404 kts 201°
2026-04-29 09:25 41.82998 -70.75150 17878 ft 406 kts 207°
2026-04-29 09:25 41.80458 -70.76820 18339 ft 408 kts 211°
2026-04-29 09:26 41.77956 -70.78653 18752 ft 411 kts 212°
2026-04-29 09:26 41.75473 -70.80565 19173 ft 413 kts 213°
2026-04-29 09:26 41.72989 -70.82507 19600 ft 415 kts 214°
2026-04-29 09:26 41.70483 -70.84458 20036 ft 417 kts 214°
2026-04-29 09:27 41.67962 -70.86397 20458 ft 420 kts 213°
2026-04-29 09:27 41.65415 -70.88332 20879 ft 422 kts 213°
2026-04-29 09:27 41.62847 -70.90264 21300 ft 425 kts 213°
2026-04-29 09:27 41.60263 -70.92198 21737 ft 427 kts 213°
2026-04-29 09:28 41.57701 -70.94124 22139 ft 428 kts 215°
2026-04-29 09:28 41.55220 -70.96384 22541 ft 425 kts 223°
2026-04-29 09:28 41.53094 -70.99021 22956 ft 422 kts 231°
2026-04-29 09:28 41.51112 -71.01921 23373 ft 422 kts 233°
2026-04-29 09:29 41.49217 -71.04913 23781 ft 423 kts 235°
2026-04-29 09:29 41.45516 -71.11043 24458 ft 426 kts 236°
2026-04-29 09:29 41.43662 -71.14132 24794 ft 428 kts 236°
2026-04-29 09:30 41.41790 -71.17225 25126 ft 429 kts 236°
2026-04-29 09:30 41.39903 -71.20316 25453 ft 431 kts 236°
2026-04-29 09:30 41.37999 -71.23414 25803 ft 433 kts 236°
2026-04-29 09:30 41.36080 -71.26521 26130 ft 435 kts 236°
2026-04-29 09:31 41.34151 -71.29637 26480 ft 437 kts 236°
2026-04-29 09:31 41.32210 -71.32766 26823 ft 440 kts 236°
2026-04-29 09:31 41.30257 -71.35913 27184 ft 442 kts 236°
2026-04-29 09:31 41.28296 -71.39070 27534 ft 444 kts 236°
2026-04-29 09:32 41.26322 -71.42246 27910 ft 447 kts 236°
2026-04-29 09:32 41.24329 -71.45450 28072 ft 454 kts 236°
2026-04-29 09:32 41.22288 -71.48740 28077 ft 468 kts 236°
2026-04-29 09:32 41.20208 -71.52095 28077 ft 472 kts 237°
2026-04-29 09:33 41.16921 -71.59469 28081 ft 459 kts 253°
2026-04-29 09:33 41.15477 -71.67594 28083 ft 451 kts 265°
2026-04-29 09:34 41.14485 -71.75743 28083 ft 450 kts 265°
2026-04-29 09:34 41.13477 -71.83927 28088 ft 449 kts 265°
2026-04-29 09:35 41.12455 -71.92098 28092 ft 448 kts 265°
2026-04-29 09:35 41.11428 -72.00247 28096 ft 448 kts 265°
2026-04-29 09:36 41.10395 -72.08380 28093 ft 447 kts 265°
2026-04-29 09:36 41.08883 -72.16412 28094 ft 452 kts 257°
2026-04-29 09:37 41.06915 -72.24316 28090 ft 451 kts 257°
2026-04-29 09:37 41.05930 -72.28251 27959 ft 447 kts 257°
2026-04-29 09:37 41.04976 -72.32073 27471 ft 446 kts 257°
2026-04-29 09:38 41.04340 -72.34630 26954 ft 446 kts 257°
2026-04-29 09:38 41.03370 -72.38540 26030 ft 448 kts 256°
2026-04-29 09:38 41.02394 -72.42467 25150 ft 449 kts 256°
2026-04-29 09:38 41.01416 -72.46383 24421 ft 447 kts 255°
2026-04-29 09:39 41.00440 -72.50272 23853 ft 440 kts 254°
2026-04-29 09:39 40.99445 -72.53636 25192 ft 247 kts 243°
2026-04-29 09:39 40.98611 -72.55040 24796 ft 163 kts 234°
2026-04-29 09:39 40.97648 -72.55604 18051 ft 91 kts 182°
2026-04-29 09:40 40.97591 -72.55847 10006 ft 160 kts 355°
2026-04-29 09:40 40.98073 -72.54661 4387 ft 173 kts 149°
2026-04-29 09:40 40.97359 -72.55226 109 ft 59 kts 344°
2026-04-29 09:40 40.97319 -72.55301 49 ft 0 kts 336°